N2PUI Weather Reports


Display with metric or nautical units.
time (UTC)temp
F
wind
direction
speed
MPH
gust
MPH
rain 1hr
in
rain 24hr
in
rain mn
in
humidity
%
barometer
mb
20260503040140 38 125 1.0 2.0 0.00 0.00 0.00 73 1014.3
20260503035636 38 9 3.0 3.0 0.00 0.00 0.00 73 1014.3
20260503035134 38 109 1.0 1.0 0.00 0.00 0.00 72 1014.4
20260503034631 38 168 0.0 0.0 0.00 0.00 0.00 72 1014.3
20260503034128 38 125 1.0 1.0 0.00 0.00 0.00 72 1014.3
20260503033625 38 216 1.0 2.0 0.00 0.00 0.00 71 1014.3
20260503033122 39 144 0.0 1.0 0.00 0.00 0.00 71 1014.3
20260503032620 39 185 1.0 1.0 0.00 0.00 0.00 71 1014.4
20260503032119 39 27 1.0 1.0 0.00 0.00 0.00 71 1014.5
20260503031616 39 196 1.0 1.0 0.00 0.00 0.00 71 1014.3
20260503031114 39 306 3.0 3.0 0.00 0.00 0.00 70 1014.3
20260503030609 39 292 2.0 2.0 0.00 0.00 0.00 70 1014.5
20260503030106 39 196 1.0 1.0 0.00 0.00 0.00 70 1014.4
20260503025603 39 177 0.0 0.0 0.00 0.00 0.00 70 1014.4
20260503025101 40 181 1.0 1.0 0.00 0.00 0.00 70 1014.4
20260503024557 40 231 1.0 1.0 0.00 0.00 0.00 70 1014.5
20260503024054 40 317 5.0 7.0 0.00 0.00 0.00 69 1014.5
20260503023551 40 198 1.0 1.0 0.00 0.00 0.00 69 1014.7
20260503023048 40 234 2.0 2.0 0.00 0.00 0.00 69 1014.3
20260503022544 40 355 0.0 0.0 0.00 0.00 0.00 69 1014.4
20260503022039 40 244 3.0 3.0 0.00 0.00 0.00 69 1014.7
20260503021536 39 65 2.0 2.0 0.00 0.00 0.00 69 1014.4
20260503021033 40 156 0.0 0.0 0.00 0.00 0.00 68 1014.7
20260503020530 40 220 1.0 2.0 0.00 0.00 0.00 68 1014.5
20260503020027 40 183 1.0 1.0 0.00 0.00 0.00 67 1014.6
20260503015524 40 191 0.0 0.0 0.00 0.00 0.00 66 1014.5
20260503015021 41 294 1.0 2.0 0.00 0.00 0.00 66 1014.6
20260503014517 41 219 2.0 2.0 0.00 0.00 0.00 65 1014.5
20260503014015 41 231 1.0 1.0 0.00 0.00 0.00 65 1014.5
20260503013512 41 236 2.0 2.0 0.00 0.00 0.00 65 1014.3
20260503013010 41 217 2.0 2.0 0.00 0.00 0.00 65 1014.4
20260503012507 41 194 0.0 1.0 0.00 0.00 0.00 64 1014.3
20260503012003 41 298 2.0 3.0 0.00 0.00 0.00 64 1014.3
20260503011500 41 317 2.0 2.0 0.00 0.00 0.00 63 1014.5
20260503010957 41 281 3.0 6.0 0.00 0.00 0.00 63 1014.3
20260503010453 41 282 3.0 3.0 0.00 0.00 0.00 63 1014.2
20260503005951 42 216 1.0 2.0 0.00 0.00 0.00 65 1014.3
20260503005448 42 300 4.0 6.0 0.00 0.00 0.00 65 1014.1
20260503004944 42 273 2.0 2.0 0.00 0.00 0.00 64 1014.1
20260503004441 42 281 3.0 3.0 0.00 0.00 0.00 63 1013.8
20260503003939 42 280 3.0 3.0 0.00 0.00 0.00 62 1013.9
20260503003436 43 206 1.0 1.0 0.00 0.00 0.00 61 1014.1
20260503002933 43 294 4.0 5.0 0.00 0.00 0.00 60 1013.9
20260503002430 43 206 1.0 1.0 0.00 0.00 0.00 59 1014.0
20260503001926 43 266 3.0 3.0 0.00 0.00 0.00 58 1014.1
20260503001423 43 44 2.0 3.0 0.00 0.00 0.00 57 1013.9
20260503000921 43 291 4.0 5.0 0.00 0.00 0.00 57 1013.9
20260503000417 43 301 6.0 7.0 0.00 0.00 0.00 56 1013.8
20260502235914 43 210 2.0 2.0 0.00 0.00 0.00 56 1013.8
20260502235411 44 296 5.0 6.0 0.00 0.00 0.00 56 1013.8
20260502234909 44 288 3.0 5.0 0.00 0.00 0.00 56 1013.8
20260502234405 44 210 1.0 2.0 0.00 0.00 0.00 56 1013.7
20260502233902 44 6 3.0 3.0 0.00 0.00 0.00 55 1013.9
20260502233357 44 323 3.0 5.0 0.00 0.00 0.00 55 1013.7
20260502232855 44 179 1.0 1.0 0.00 0.00 0.00 54 1013.4
20260502232351 44 189 2.0 2.0 0.00 0.00 0.00 54 1013.8
20260502231848 44 260 1.0 2.0 0.00 0.00 0.00 53 1013.7
20260502231346 44 237 3.0 3.0 0.00 0.00 0.00 53 1013.8
20260502230844 45 226 1.0 2.0 0.00 0.00 0.00 54 1013.5
20260502230342 45 289 1.0 1.0 0.00 0.00 0.00 54 1013.5
20260502225838 45 276 3.0 3.0 0.00 0.00 0.00 52 1013.4
20260502225335 45 275 3.0 5.0 0.00 0.00 0.00 52 1013.4
20260502224832 45 203 1.0 1.0 0.00 0.00 0.00 52 1013.1
20260502224328 45 250 2.0 3.0 0.00 0.00 0.00 51 1013.0
20260502223825 45 300 3.0 5.0 0.00 0.00 0.00 51 1013.5
20260502223323 45 241 3.0 5.0 0.00 0.00 0.00 50 1013.4
20260502222821 46 309 3.0 3.0 0.00 0.00 0.00 51 1013.3
20260502222318 46 273 1.0 2.0 0.00 0.00 0.00 51 1013.4
20260502221813 46 82 2.0 2.0 0.00 0.00 0.00 52 1013.1
20260502221304 46 299 5.0 6.0 0.00 0.00 0.00 50 1013.3
20260502220802 46 11 3.0 5.0 0.00 0.00 0.00 51 1013.0
20260502220257 46 229 1.0 1.0 0.00 0.00 0.00 51 1013.3
20260502215754 46 278 4.0 9.0 0.00 0.00 0.00 51 1013.3
20260502215251 46 259 2.0 3.0 0.00 0.00 0.00 49 1012.9
20260502214748 47 252 3.0 5.0 0.00 0.00 0.00 51 1013.0
20260502214245 46 243 3.0 3.0 0.00 0.00 0.00 50 1013.1
20260502213742 46 239 3.0 5.0 0.00 0.00 0.00 51 1013.3
20260502213240 46 200 0.0 1.0 0.00 0.00 0.00 52 1013.1
20260502212739 46 223 3.0 3.0 0.00 0.00 0.00 51 1013.0
20260502212236 46 238 2.0 2.0 0.00 0.00 0.00 52 1013.1
20260502211732 46 199 0.0 1.0 0.00 0.00 0.00 51 1013.3
20260502211229 46 228 2.0 2.0 0.00 0.00 0.00 50 1013.0
20260502210726 46 199 0.0 1.0 0.00 0.00 0.00 52 1013.0
20260502210223 46 302 3.0 5.0 0.00 0.00 0.00 51 1013.4
20260502205721 46 310 5.0 5.0 0.00 0.00 0.00 50 1013.4
20260502205216 46 323 4.0 5.0 0.00 0.00 0.00 51 1013.3
20260502204714 47 265 4.0 6.0 0.00 0.00 0.00 51 1013.4
20260502204212 46 298 3.0 5.0 0.00 0.00 0.00 51 1013.4
20260502203709 46 233 4.0 6.0 0.00 0.00 0.00 51 1013.0
20260502203206 47 314 2.0 3.0 0.00 0.00 0.00 51 1013.3
20260502202700 46 199 1.0 1.0 0.00 0.00 0.00 50 1013.6
20260502202159 46 171 2.0 2.0 0.00 0.00 0.00 51 1013.6
20260502201656 46 241 4.0 5.0 0.00 0.00 0.00 49 1013.1
20260502201153 46 224 1.0 2.0 0.00 0.00 0.00 48 1013.5
20260502200648 46 315 5.0 6.0 0.00 0.00 0.00 49 1013.7
20260502200145 46 313 3.0 3.0 0.00 0.00 0.00 48 1013.6
20260502195643 47 304 6.0 7.0 0.00 0.00 0.00 48 1013.7
20260502195139 47 293 4.0 5.0 0.00 0.00 0.00 48 1013.7
20260502194636 47 283 2.0 2.0 0.00 0.00 0.00 47 1013.7
20260502194133 47 207 1.0 2.0 0.00 0.00 0.00 49 1013.7
20260502193629 47 258 2.0 2.0 0.00 0.00 0.00 48 1013.9
20260502193127 46 320 5.0 6.0 0.00 0.00 0.00 47 1013.9
20260502192622 47 289 3.0 3.0 0.00 0.00 0.00 48 1013.8
20260502192120 47 309 6.0 8.0 0.00 0.00 0.00 46 1013.7
20260502191616 47 287 5.0 7.0 0.00 0.00 0.00 46 1014.1
20260502191114 47 347 3.0 3.0 0.00 0.00 0.00 46 1013.7
20260502190611 47 261 5.0 6.0 0.00 0.00 0.00 45 1013.6
20260502190109 47 291 4.0 6.0 0.00 0.00 0.00 46 1013.9
20260502185603 48 294 5.0 7.0 0.00 0.00 0.00 45 1013.8
20260502185100 48 215 2.0 2.0 0.00 0.00 0.00 45 1013.9
20260502184556 48 271 2.0 2.0 0.00 0.00 0.00 45 1013.8
20260502184051 48 154 0.0 0.0 0.00 0.00 0.00 46 1013.9
20260502183548 48 114 0.0 0.0 0.00 0.00 0.00 45 1013.7
20260502183044 48 195 1.0 2.0 0.00 0.00 0.00 44 1014.0
20260502182540 48 186 1.0 2.0 0.00 0.00 0.00 46 1014.0
20260502182036 47 210 1.0 2.0 0.00 0.00 0.00 45 1014.0
20260502181534 47 230 3.0 3.0 0.00 0.00 0.00 46 1014.1
20260502181032 47 239 3.0 3.0 0.00 0.00 0.00 45 1014.2
20260502180528 47 234 7.0 8.0 0.00 0.00 0.00 45 1014.0
20260502170442 47 214 2.0 2.0 0.00 0.00 0.00 45 1014.0
20260502163925 51 281 5.0 6.0 0.00 0.00 0.00 40 1014.3
20260502163422 48 218 3.0 3.0 0.00 0.00 0.00 47 1014.2
20260502162920 48 11 6.0 7.0 0.00 0.00 0.00 46 1014.1
20260502162416 48 256 6.0 8.0 0.00 0.00 0.00 44 1014.3
20260502161913 47 212 4.0 6.0 0.00 0.00 0.00 48 1014.1
20260502161409 48 67 5.0 7.0 0.00 0.00 0.00 45 1014.3
20260502160907 49 308 3.0 3.0 0.00 0.00 0.00 46 1014.1
20260502160405 47 239 3.0 6.0 0.00 0.00 0.00 47 1014.4
20260502152340 47 215 5.0 7.0 0.00 0.00 0.00 46 1014.0
20260502151838 46 258 7.0 9.0 0.00 0.00 0.00 46 1014.4
20260502151334 46 233 6.0 8.0 0.00 0.00 0.00 45 1014.2
20260502150832 47 315 5.0 7.0 0.00 0.00 0.00 48 1014.3
20260502150328 47 284 5.0 7.0 0.00 0.00 0.00 48 1014.1
20260502130716 42 347 4.0 6.0 0.00 0.00 0.00 70 1014.8
20260502130214 42 250 4.0 5.0 0.00 0.00 0.00 70 1014.8
20260502123700 42 289 1.0 2.0 0.00 0.00 0.00 71 1014.7
20260502123156 42 241 3.0 5.0 0.00 0.00 0.00 71 1014.4
20260502122653 42 221 2.0 3.0 0.00 0.00 0.00 71 1014.6
20260502122149 42 315 3.0 5.0 0.00 0.00 0.00 71 1014.6
20260502121648 42 334 3.0 5.0 0.00 0.00 0.00 72 1014.6
20260502121145 41 322 5.0 6.0 0.00 0.00 0.00 73 1014.7
20260502120641 41 228 3.0 3.0 0.00 0.00 0.00 76 1014.7
20260502120139 41 109 2.0 3.0 0.00 0.00 0.00 77 1014.5
20260502115636 41 305 3.0 6.0 0.00 0.00 0.00 77 1014.5
20260502115132 41 250 4.0 5.0 0.00 0.00 0.00 77 1014.7
20260502114628 41 247 4.0 6.0 0.00 0.00 0.00 78 1014.5
20260502114126 41 315 7.0 8.0 0.00 0.00 0.00 79 1014.7
20260502113623 41 280 2.0 3.0 0.00 0.00 0.00 80 1014.8
20260502113121 40 306 3.0 5.0 0.00 0.00 0.00 81 1014.6
20260502112619 40 292 2.0 2.0 0.00 0.00 0.00 82 1014.5
20260502112116 39 299 4.0 5.0 0.00 0.00 0.00 83 1014.5
20260502111613 39 202 1.0 1.0 0.00 0.00 0.00 83 1014.5
20260502111111 39 236 2.0 2.0 0.00 0.00 0.00 84 1014.5
20260502110608 39 193 2.0 3.0 0.00 0.00 0.00 85 1014.4
20260502110106 39 211 1.0 2.0 0.00 0.00 0.00 85 1014.5
20260502105603 39 279 4.0 5.0 0.00 0.00 0.00 86 1014.4
20260502105100 39 265 3.0 3.0 0.00 0.00 0.00 86 1014.2
20260502104557 39 182 1.0 1.0 0.00 0.00 0.00 86 1014.0
20260502104054 39 186 1.0 1.0 0.00 0.00 0.00 86 1014.1
20260502103552 39 231 3.0 5.0 0.00 0.00 0.00 87 1014.1
20260502103050 39 312 7.0 8.0 0.00 0.00 0.00 87 1013.9
20260502102546 39 310 4.0 6.0 0.00 0.00 0.00 88 1013.8
20260502102043 39 324 3.0 3.0 0.00 0.00 0.00 89 1014.1
20260502101541 39 273 2.0 2.0 0.00 0.00 0.00 89 1014.0
20260502101039 39 301 2.0 3.0 0.00 0.00 0.00 90 1013.9
20260502100537 39 289 3.0 5.0 0.00 0.00 0.00 90 1013.8
20260502091512 39 144 0.0 1.0 0.00 0.00 0.00 89 1013.6
20260502091009 39 176 0.0 1.0 0.00 0.00 0.00 89 1013.4
20260502090506 40 150 0.0 1.0 0.00 0.00 0.00 89 1013.4
20260502071401 40 182 0.0 0.0 0.00 0.00 0.00 91 1012.8
20260502070859 40 313 3.0 3.0 0.00 0.00 0.00 91 1013.0
20260502070356 40 180 1.0 1.0 0.00 0.00 0.00 91 1012.8
20260502065855 40 300 3.0 3.0 0.00 0.00 0.00 91 1012.8
20260502065353 40 297 4.0 5.0 0.00 0.00 0.00 91 1012.9
20260502064850 40 263 2.0 3.0 0.00 0.00 0.00 91 1012.9
20260502064348 40 254 2.0 2.0 0.00 0.00 0.00 92 1012.9
20260502063845 40 232 2.0 2.0 0.00 0.00 0.00 92 1012.9
20260502063343 40 317 3.0 3.0 0.00 0.00 0.00 92 1012.7
20260502062840 40 194 1.0 1.0 0.00 0.00 0.00 92 1013.0
20260502062337 40 213 3.0 3.0 0.00 0.00 0.00 92 1012.9
20260502061836 40 147 1.0 1.0 0.00 0.00 0.00 92 1012.9
20260502061333 40 286 1.0 2.0 0.00 0.00 0.00 92 1012.9
20260502060829 40 26 2.0 2.0 0.00 0.00 0.00 92 1012.9
20260502060324 40 281 3.0 3.0 0.00 0.00 0.00 92 1013.3
20260502055822 40 228 3.0 5.0 0.00 0.00 0.00 92 1012.9
20260502055320 40 307 4.0 5.0 0.00 0.00 0.00 92 1012.7
20260502054819 40 318 3.0 7.0 0.00 0.00 0.00 92 1012.6
20260502054316 40 313 6.0 8.0 0.00 0.00 0.00 92 1012.8
20260502053814 40 195 1.0 1.0 0.00 0.00 0.00 93 1012.8
20260502053311 41 303 4.0 7.0 0.00 0.00 0.00 93 1012.7
20260502052809 41 181 1.0 1.0 0.00 0.00 0.00 93 1012.8
20260502052306 41 314 6.0 8.0 0.00 0.00 0.00 93 1012.8
20260502051804 41 159 0.0 1.0 0.00 0.00 0.00 93 1012.8
20260502051303 41 90 2.0 2.0 0.00 0.00 0.00 93 1012.8
20260502050758 41 221 3.0 3.0 0.00 0.00 0.00 93 1013.0
20260502050254 41 205 1.0 1.0 0.00 0.00 0.00 93 1012.9
20260502045752 41 287 1.0 2.0 0.00 0.00 0.00 93 1013.1
20260502045248 41 142 0.0 0.0 0.00 0.00 0.00 93 1013.0
20260502044745 41 284 1.0 2.0 0.00 0.00 0.00 93 1013.1
20260502044241 41 216 3.0 5.0 0.00 0.00 0.00 93 1012.8
20260502043739 42 282 5.0 6.0 0.00 0.00 0.00 93 1013.0
20260502043237 42 191 1.0 1.0 0.00 0.00 0.00 93 1012.8
20260502042736 42 222 2.0 3.0 0.00 0.00 0.00 93 1012.8
20260502042233 42 338 4.0 5.0 0.00 0.00 0.00 93 1012.8
20260502041731 42 289 2.0 3.0 0.00 0.00 0.00 93 1012.9
20260502041228 42 231 2.0 3.0 0.00 0.00 0.00 93 1012.9
20260502040725 42 259 2.0 2.0 0.00 0.00 0.00 93 1012.6